DW4219 Weather Reports


time (UTC)temp
F
wind
direction
speed
knots
gust
knots
rain 1hr
in
rain 24hr
in
rain mn
in
humidity
%
barometer
mb
20260507051505 43 172 0.0 0.0 0.00 0.00 0.00 43 1018.9
20260507050004 45 152 0.0 0.9 0.00 0.00 0.00 40 1018.8
20260507044503 46 156 0.0 0.0 0.00 0.00 0.00 40 1018.9
20260507043005 48 174 0.0 0.9 0.00 0.00 0.00 39 1018.8
20260507041502 49 248 0.0 0.9 0.00 0.00 0.00 37 1018.8
20260507040112 50 184 0.0 0.9 0.00 0.00 0.00 36 1018.6
20260507034603 51 111 0.0 0.9 0.00 0.00 0.00 36 1018.3
20260507033057 51 111 0.0 0.9 0.00 0.00 0.00 33 1018.0
20260507031557 52 309 0.9 1.7 0.00 0.00 0.00 35 1017.8
20260507030054 56 51 0.0 5.2 0.00 0.00 0.00 27 1017.5
20260507024548 58 46 5.2 8.7 0.00 0.00 0.00 26 1017.1
20260507023046 59 59 6.1 11.3 0.00 0.00 0.00 25 1016.9
20260507021547 61 59 7.0 10.4 0.00 0.00 0.00 25 1016.6
20260507020053 63 41 7.8 13.9 0.00 0.00 0.00 23 1016.6
20260507014552 64 68 8.7 13.9 0.00 0.00 0.00 22 1016.6
20260507013043 65 53 7.8 14.8 0.00 0.00 0.00 21 1016.5
20260507011553 66 29 7.0 14.8 0.00 0.00 0.00 23 1016.3
20260507010041 66 38 7.0 15.6 0.00 0.00 0.00 23 1016.2
20260507004541 67 39 6.1 15.6 0.00 0.00 0.00 23 1016.1
20260507003039 67 70 7.0 15.6 0.00 0.00 0.00 23 1016.1
20260507001549 67 46 7.0 14.8 0.00 0.00 0.00 23 1016.0
20260507000039 67 57 7.8 16.5 0.00 0.00 0.00 22 1015.7
20260506234543 67 51 8.7 17.4 0.00 0.00 0.00 23 1015.8
20260506233034 68 24 7.0 14.8 0.00 0.00 0.00 23 1015.7
20260506231536 67 18 6.1 11.3 0.00 0.00 0.00 25 1015.7
20260506230031 67 1 9.6 17.4 0.00 0.00 0.00 25 1015.9
20260506224531 67 57 7.0 15.6 0.00 0.00 0.00 24 1015.8
20260506223027 66 84 4.3 14.8 0.00 0.00 0.00 24 1016.0
20260506221526 66 360 9.6 15.6 0.00 0.00 0.00 23 1015.9
20260506220024 67 68 8.7 14.8 0.00 0.00 0.00 25 1016.0
20260506214523 66 44 10.4 14.8 0.00 0.00 0.00 27 1016.2
20260506213023 66 24 10.4 16.5 0.00 0.00 0.00 29 1016.2
20260506211521 66 1 8.7 16.5 0.00 0.00 0.00 30 1016.2
20260506210023 66 56 10.4 15.6 0.00 0.00 0.00 32 1016.1
20260506204517 65 356 7.0 17.4 0.00 0.00 0.00 31 1016.1
20260506203016 65 11 11.3 18.2 0.00 0.00 0.00 31 1016.2
20260506201618 65 1 7.8 15.6 0.00 0.00 0.00 32 1016.2
20260506200017 65 33 11.3 18.2 0.00 0.00 0.00 32 1016.4
20260506194512 65 15 10.4 17.4 0.00 0.00 0.00 34 1016.5
20260506193011 64 63 7.8 15.6 0.00 0.00 0.00 36 1016.4
20260506191513 63 341 11.3 19.1 0.00 0.00 0.00 37 1016.5
20260506190007 64 25 7.8 15.6 0.00 0.00 0.00 39 1016.5
20260506184506 63 47 7.8 15.6 0.00 0.00 0.00 40 1016.7
20260506183005 63 38 5.2 14.8 0.00 0.00 0.00 40 1016.6
20260506181503 62 48 9.6 17.4 0.00 0.00 0.00 41 1016.8
20260506180201 62 60 9.6 14.8 0.00 0.00 0.00 41 1016.5
20260506174609 62 56 9.6 14.8 0.00 0.00 0.00 41 1016.4
20260506173058 60 360 6.1 13.0 0.00 0.00 0.00 43 1016.4
20260506171604 61 333 4.3 9.6 0.00 0.00 0.00 43 1016.3
20260506170052 60 48 5.2 9.6 0.00 0.00 0.00 45 1016.3
20260506164554 59 54 6.1 9.6 0.00 0.00 0.00 44 1016.2
20260506163103 59 13 4.3 11.3 0.00 0.00 0.00 45 1016.1
20260506161547 58 349 0.9 3.5 0.00 0.00 0.00 46 1016.0
20260506160045 58 40 0.9 6.1 0.00 0.00 0.00 46 1016.0
20260506154548 57 50 1.7 4.3 0.00 0.00 0.00 47 1016.0
20260506153042 57 219 0.0 2.6 0.00 0.00 0.00 45 1016.0
20260506151543 55 23 0.0 1.7 0.00 0.00 0.00 47 1015.9
20260506150038 54 193 0.0 1.7 0.00 0.00 0.00 45 1016.1
20260506144536 51 294 0.0 0.9 0.00 0.00 0.00 49 1015.9
20260506143035 49 212 0.0 0.9 0.00 0.00 0.00 52 1015.9
20260506141533 48 257 0.0 1.7 0.00 0.00 0.00 52 1015.7
20260506140034 47 222 0.0 2.6 0.00 0.00 0.00 52 1015.5
20260506134528 45 203 0.0 1.7 0.00 0.00 0.00 55 1015.3
20260506133026 42 219 0.0 2.6 0.00 0.00 0.00 62 1015.1
20260506131531 39 236 0.0 0.9 0.00 0.00 0.00 65 1014.9
20260506130022 37 248 0.0 0.9 0.00 0.00 0.00 66 1014.7
20260506124520 38 192 0.0 0.9 0.00 0.00 0.00 66 1014.3
20260506123016 38 223 0.0 0.9 0.00 0.00 0.00 64 1013.9
20260506121512 39 223 0.0 0.9 0.00 0.00 0.00 63 1013.7
20260506120012 40 185 0.0 0.9 0.00 0.00 0.00 58 1013.7
20260506114506 41 214 0.0 1.7 0.00 0.00 0.00 58 1013.6
20260506113003 42 203 0.0 1.7 0.00 0.00 0.00 57 1013.5
20260506111601 44 194 0.9 1.7 0.00 0.00 0.00 54 1013.4
20260506110103 45 235 0.0 1.7 0.00 0.00 0.00 52 1013.3
20260506104557 46 250 0.9 3.5 0.00 0.00 0.00 50 1013.1
20260506103054 46 207 0.9 2.6 0.00 0.00 0.00 50 1012.8
20260506101608 46 193 0.0 3.5 0.00 0.00 0.00 51 1012.8
20260506100046 46 221 0.9 5.2 0.00 0.00 0.00 50 1012.5
20260506094546 46 207 1.7 3.5 0.00 0.00 0.00 49 1012.5
20260506093044 47 217 2.6 6.1 0.00 0.00 0.00 48 1012.5
20260506091540 48 172 2.6 7.0 0.00 0.00 0.00 47 1012.3
20260506090037 48 204 2.6 7.0 0.00 0.00 0.00 46 1012.3
20260506084542 47 316 0.0 0.9 0.00 0.00 0.00 46 1012.1
20260506083033 48 31 0.0 0.9 0.00 0.00 0.00 46 1012.0
20260506081528 49 253 0.9 3.5 0.00 0.00 0.00 44 1011.9
20260506073024 49 278 0.0 1.7 0.00 0.00 0.00 43 1011.6
20260506071520 50 140 1.7 3.5 0.00 0.00 0.00 41 1011.5
20260506061507 53 205 7.0 10.4 0.00 0.00 0.00 37 1011.0